Météo par heure à Jutiapa

Ce jour, 20 Juin, Dimanche

Heure Température Précipitation Vent Pression Humidité
00:00 +20°C° 0 mm 1 m/s 674 mmHg 94%
01:00 +20°C° 0.2 mm 1 m/s 673 mmHg 93%
02:00 +20°C° 0.2 mm 1 m/s 673 mmHg 93%
03:00 +20°C° 0.2 mm 1 m/s 673 mmHg 93%
04:00 +20°C° 0.6 mm 1 m/s 673 mmHg 94%
05:00 +20°C° 0.6 mm 1 m/s 673 mmHg 94%
06:00 +20°C° 0 mm 1 m/s 674 mmHg 96%
07:00 +21°C° 0.7 mm 1 m/s 674 mmHg 92%
08:00 +23°C° 0.7 mm 1 m/s 675 mmHg 88%
09:00 +24°C° 0.7 mm 1 m/s 675 mmHg 84%
10:00 +25°C° 0.1 mm 1 m/s 675 mmHg 78%
11:00 +27°C° 0.1 mm 1 m/s 675 mmHg 72%
12:00 +28°C° 0.1 mm 1 m/s 675 mmHg 66%
13:00 +28°C° 0.5 mm 1 m/s 674 mmHg 68%
14:00 +28°C° 0.5 mm 1 m/s 674 mmHg 71%
15:00 +28°C° 0.5 mm 1 m/s 673 mmHg 73%
16:00 +26°C° 0.4 mm 1 m/s 673 mmHg 79%
17:00 +25°C° 0.4 mm 1 m/s 673 mmHg 86%
18:00 +24°C° 0.4 mm 1 m/s 673 mmHg 92%
19:00 +23°C° 0.7 mm 1 m/s 673 mmHg 94%
20:00 +23°C° 0.7 mm 1 m/s 673 mmHg 95%
21:00 +22°C° 0.7 mm 1 m/s 674 mmHg 96%
22:00 +22°C° 0.6 mm 1 m/s 674 mmHg 96%
23:00 +22°C° 0.6 mm 1 m/s 674 mmHg 96%

Demain, 21 Juin, Lundi

Heure Température Précipitation Vent Pression Humidité
00:00 +21°C° 0.6 mm 1 m/s 674 mmHg 96%
01:00 +21°C° 2.1 mm 1 m/s 673 mmHg 96%
02:00 +21°C° 2.1 mm 1 m/s 673 mmHg 97%
03:00 +21°C° 2.1 mm 1 m/s 673 mmHg 97%
04:00 +21°C° 0.7 mm 1 m/s 673 mmHg 96%
05:00 +21°C° 0.7 mm 1 m/s 673 mmHg 96%
06:00 +21°C° 0.7 mm 1 m/s 673 mmHg 96%
07:00 +22°C° 0 mm 1 m/s 674 mmHg 90%
08:00 +24°C° 0 mm 1 m/s 674 mmHg 84%
09:00 +25°C° 0 mm 1 m/s 675 mmHg 78%
10:00 +26°C° 0.1 mm 1 m/s 675 mmHg 74%
11:00 +27°C° 0.1 mm 1 m/s 675 mmHg 71%
12:00 +28°C° 0.1 mm 2 m/s 674 mmHg 67%
13:00 +28°C° 0.4 mm 2 m/s 674 mmHg 67%
14:00 +28°C° 0.4 mm 2 m/s 674 mmHg 66%
15:00 +28°C° 0.4 mm 2 m/s 673 mmHg 66%
16:00 +26°C° 0.2 mm 1 m/s 673 mmHg 74%
17:00 +25°C° 0.2 mm 1 m/s 673 mmHg 81%
18:00 +24°C° 0.2 mm 1 m/s 673 mmHg 89%
19:00 +23°C° 0.1 mm 1 m/s 673 mmHg 91%
20:00 +22°C° 0.1 mm 1 m/s 673 mmHg 93%
21:00 +21°C° 0.1 mm 1 m/s 673 mmHg 95%
22:00 +21°C° 0 mm 1 m/s 673 mmHg 95%
23:00 +21°C° 0 mm 1 m/s 673 mmHg 95%

Après-demain, 22 Juin, Mardi

Heure Température Précipitation Vent Pression Humidité
00:00 +20°C° 0 mm 1 m/s 673 mmHg 94%
01:00 +20°C° 0.1 mm 1 m/s 673 mmHg 94%
02:00 +20°C° 0.1 mm 1 m/s 672 mmHg 94%
03:00 +20°C° 0.1 mm 1 m/s 672 mmHg 94%
04:00 +20°C° 0 mm 1 m/s 672 mmHg 94%
05:00 +20°C° 0 mm 1 m/s 672 mmHg 94%
06:00 +20°C° 0 mm 1 m/s 672 mmHg 94%
07:00 +22°C° 0 mm 1 m/s 673 mmHg 88%
08:00 +24°C° 0 mm 1 m/s 674 mmHg 81%
09:00 +26°C° 0 mm 1 m/s 674 mmHg 75%
10:00 +26°C° 0.4 mm 1 m/s 674 mmHg 74%
11:00 +27°C° 0.4 mm 1 m/s 674 mmHg 72%
12:00 +27°C° 0.4 mm 1 m/s 674 mmHg 71%
13:00 +27°C° 1.4 mm 1 m/s 673 mmHg 73%
14:00 +27°C° 1.4 mm 2 m/s 673 mmHg 75%
15:00 +26°C° 1.4 mm 2 m/s 673 mmHg 77%
16:00 +25°C° 1.5 mm 1 m/s 672 mmHg 82%
17:00 +24°C° 1.5 mm 1 m/s 672 mmHg 87%
18:00 +23°C° 1.5 mm 1 m/s 672 mmHg 92%
19:00 +22°C° 0.7 mm 1 m/s 672 mmHg 93%
20:00 +22°C° 0.7 mm 1 m/s 673 mmHg 93%
21:00 +21°C° 0.7 mm 1 m/s 673 mmHg 94%
22:00 +21°C° 0.3 mm 1 m/s 673 mmHg 94%
23:00 +20°C° 0.3 mm 1 m/s 673 mmHg 94%

23 Juin, Mercredi

Heure Température Précipitation Vent Pression Humidité
00:00 +20°C° 0.3 mm 1 m/s 673 mmHg 94%
01:00 +20°C° 0.5 mm 1 m/s 673 mmHg 94%
02:00 +19°C° 0.5 mm 1 m/s 672 mmHg 93%
03:00 +19°C° 0.5 mm 1 m/s 672 mmHg 93%
04:00 +19°C° 0.1 mm 1 m/s 672 mmHg 94%
05:00 +20°C° 0.1 mm 1 m/s 673 mmHg 94%
06:00 +20°C° 0.1 mm 1 m/s 673 mmHg 94%
07:00 +21°C° 0.1 mm 1 m/s 673 mmHg 90%
08:00 +23°C° 0.1 mm 1 m/s 674 mmHg 85%
09:00 +24°C° 0.1 mm 1 m/s 675 mmHg 81%
10:00 +24°C° 0.7 mm 1 m/s 674 mmHg 81%
11:00 +25°C° 0.7 mm 1 m/s 674 mmHg 82%
12:00 +25°C° 0.7 mm 1 m/s 674 mmHg 82%
13:00 +25°C° 1 mm 1 m/s 674 mmHg 81%
14:00 +25°C° 1 mm 1 m/s 674 mmHg 81%
15:00 +25°C° 1 mm 1 m/s 673 mmHg 80%
16:00 +24°C° 0.8 mm 1 m/s 673 mmHg 84%
17:00 +23°C° 0.8 mm 1 m/s 673 mmHg 87%
18:00 +22°C° 0.8 mm 1 m/s 673 mmHg 91%
19:00 +21°C° 0.4 mm 1 m/s 673 mmHg 90%
20:00 +21°C° 0.4 mm 1 m/s 674 mmHg 90%
21:00 +21°C° 0.4 mm 1 m/s 674 mmHg 90%
22:00 +21°C° 0 mm 1 m/s 674 mmHg 90%
23:00 +20°C° 0 mm 1 m/s 674 mmHg 91%

24 Juin, Jeudi

Heure Température Précipitation Vent Pression Humidité
00:00 +20°C° 0 mm 1 m/s 674 mmHg 91%
01:00 +20°C° 0 mm 1 m/s 673 mmHg 91%
02:00 +20°C° 0 mm 1 m/s 673 mmHg 91%
03:00 +18°C° 0 mm 0 m/s 673 mmHg 91%
04:00 +17°C° 0 mm 0 m/s 673 mmHg 92%
05:00 +17°C° 0 mm 0 m/s 673 mmHg 92%
06:00 +17°C° 0 mm 0 m/s 673 mmHg 93%
07:00 +21°C° 0 mm 1 m/s 674 mmHg 87%
08:00 +22°C° 0 mm 1 m/s 674 mmHg 81%
09:00 +24°C° 0 mm 1 m/s 675 mmHg 74%
10:00 +25°C° 0 mm 1 m/s 675 mmHg 69%
11:00 +26°C° 0 mm 1 m/s 675 mmHg 63%
12:00 +27°C° 0 mm 2 m/s 674 mmHg 57%
13:00 +27°C° 0.1 mm 2 m/s 674 mmHg 59%
14:00 +26°C° 0.1 mm 2 m/s 673 mmHg 61%
15:00 +26°C° 0.1 mm 2 m/s 673 mmHg 62%
16:00 +25°C° 0.2 mm 1 m/s 673 mmHg 69%
17:00 +23°C° 0.2 mm 1 m/s 673 mmHg 76%
18:00 +22°C° 0.2 mm 1 m/s 673 mmHg 82%
19:00 +22°C° 0 mm 1 m/s 673 mmHg 81%
20:00 +21°C° 0 mm 1 m/s 673 mmHg 79%
21:00 +21°C° 0 mm 1 m/s 674 mmHg 77%
22:00 +20°C° 0 mm 1 m/s 673 mmHg 75%
23:00 +20°C° 0 mm 1 m/s 673 mmHg 73%

25 Juin, Vendredi

Heure Température Précipitation Vent Pression Humidité
00:00 +20°C° 0 mm 1 m/s 673 mmHg 70%
01:00 +20°C° 0 mm 1 m/s 673 mmHg 70%
02:00 +20°C° 0 mm 1 m/s 673 mmHg 70%
03:00 +19°C° 0 mm 1 m/s 672 mmHg 70%
04:00 +19°C° 0 mm 1 m/s 672 mmHg 71%
05:00 +19°C° 0 mm 1 m/s 672 mmHg 73%
06:00 +18°C° 0 mm 1 m/s 672 mmHg 74%
07:00 +20°C° 0 mm 1 m/s 673 mmHg 73%
08:00 +21°C° 0 mm 1 m/s 673 mmHg 72%
09:00 +21°C° 0 mm 0 m/s 674 mmHg 70%
10:00 +22°C° 0 mm 0 m/s 673 mmHg 67%
11:00 +23°C° 0 mm 0 m/s 673 mmHg 65%
12:00 +23°C° 0 mm 0 m/s 673 mmHg 62%
13:00 +25°C° 0.1 mm 1 m/s 673 mmHg 66%
14:00 +25°C° 0.1 mm 1 m/s 672 mmHg 70%
15:00 +25°C° 0.1 mm 1 m/s 672 mmHg 74%
16:00 +24°C° 0.2 mm 1 m/s 672 mmHg 79%
17:00 +23°C° 0.2 mm 1 m/s 672 mmHg 85%
18:00 +22°C° 0.2 mm 1 m/s 672 mmHg 90%
19:00 +21°C° 0 mm 1 m/s 672 mmHg 92%
20:00 +20°C° 0 mm 1 m/s 672 mmHg 94%
21:00 +18°C° 0 mm 0 m/s 672 mmHg 96%
22:00 +20°C° 0.2 mm 1 m/s 672 mmHg 96%
23:00 +20°C° 0.2 mm 1 m/s 672 mmHg 95%
Voir plus

Nous avons besoin de votre consentement

Meteoprog et ses fournisseurs de services peuvent stocker et accéder à des données personnelles telles que des cookies, des identifiants d'appareils ou d'autres technologies similaires sur votre appareil et traiter ces données pour personnaliser le contenu et les publicités, ainsi que pour fournir des fonctionnalités de médias sociaux et analyser le trafic.

  • Stocker et/ou accéder à des informations sur votre appareil

    Des cookies, des identifiants d'appareils ou d'autres informations peuvent être stockés ou accessibles sur votre appareil aux fins indiquées ci-dessus.

  • Annonces et contenus personnalisés, mesure des annonces et des contenus, connaissance de l'audience et développement de produits

    Les annonces et le contenu peuvent être personnalisés en fonction d'un profil. D'autres données peuvent être ajoutées pour mieux personnaliser les annonces et le contenu. Les performances des publicités et du contenu peuvent être mesurées. Il est possible d'obtenir des informations sur le public qui a vu les publicités et le contenu. Ces données peuvent être utilisées pour développer ou améliorer l'expérience de l'utilisateur, les systèmes et les logiciels.

En cliquant sur "J'accepte", vous autorisez l'utilisation de cookies, des identifiants d'appareils, des balises web ou d'autres technologies similaires. Vos paramètres peuvent être modifiés dans le navigateur de votre appareil.

Dans certains cas, des intérêts légitimes peuvent être invoqués plutôt qu'un consentement. Vous pouvez en savoir plus à ce sujet dans notre Politique de confidentialité et de cookies.